This demonstration page uses our WeatherBlox Daily Observations layout. Learn more.

Left ArrowRight Arrow

Hourly Observations for November 16, 2020

Temp ( °F °C ) Dew Point ( °F °C ) Humidity (%) Winds ( mph kmh ) Pressure ( in mb ) Visibility ( mi km ) Precip ( " mm )
12:15 am 00:15 Clear 41 5 32 undefined 70 70 W 17 28 30.10 1019 10 16 N/A
12:35 am 00:35 Clear 41 5 32 undefined 70 70 W 14 22 30.10 1019 10 16 N/A
12:55 am 00:55 Clear 39 4 32 undefined 75 75 W 18 30 30.11 1020 10 16 N/A
1:15 am 01:15 Clear 39 4 32 undefined 75 75 W 15 24 30.12 1020 10 16 N/A
1:35 am 01:35 Clear 39 4 32 undefined 75 75 W 18 30 30.12 1020 10 16 N/A
1:55 am 01:55 Clear 39 4 32 undefined 75 75 W 17 28 30.13 1020 10 16 N/A
2:15 am 02:15 Clear 39 4 30 -1 70 70 W 16 26 30.14 1021 10 16 N/A
2:35 am 02:35 Clear 37 3 30 -1 75 75 W 18 30 30.14 1021 10 16 N/A
2:55 am 02:55 Clear 37 3 30 -1 75 75 W 13 20 30.15 1021 10 16 N/A
3:15 am 03:15 Clear 36 2 30 -1 81 81 W 13 20 30.16 1021 10 16 N/A
3:35 am 03:35 Clear 36 2 30 -1 81 81 W 12 19 30.16 1021 10 16 N/A
3:55 am 03:55 Clear 36 2 30 -1 81 81 W 12 19 30.16 1021 10 16 N/A
4:15 am 04:15 Clear 34 1 30 -1 87 87 WSW 10 17 30.17 1022 10 16 N/A
4:35 am 04:35 Clear 34 1 30 -1 87 87 WSW 10 17 30.17 1022 10 16 N/A
4:55 am 04:55 Clear 34 1 30 -1 87 87 WSW 13 20 30.17 1022 10 16 N/A
5:15 am 05:15 Clear 34 1 30 -1 87 87 WSW 12 19 30.18 1022 10 16 N/A
5:35 am 05:35 Clear 32 undefined 30 -1 93 93 W 10 17 30.19 1022 10 16 N/A
5:55 am 05:55 Clear 32 undefined 30 -1 93 93 W 10 17 30.18 1022 10 16 N/A
6:15 am 06:15 Clear 32 undefined 30 -1 93 93 WSW 12 19 30.19 1022 10 16 N/A
6:35 am 06:35 Clear 32 undefined 30 -1 93 93 WSW 10 17 30.19 1022 10 16 N/A
6:55 am 06:55 Clear 32 undefined 30 -1 93 93 WSW 10 17 30.20 1023 10 16 N/A
7:15 am 07:15 Clear 32 undefined 30 -1 93 93 WSW 10 17 30.21 1023 10 16 N/A
7:35 am 07:35 Sunny 32 undefined 30 -1 93 93 WSW 9 15 30.21 1023 10 16 N/A
7:55 am 07:55 Sunny 34 1 32 undefined 93 93 WSW 9 15 30.21 1023 10 16 N/A
8:15 am 08:15 Sunny 36 2 32 undefined 87 87 WSW 10 17 30.22 1023 10 16 N/A
8:35 am 08:35 Sunny 36 2 32 undefined 87 87 SW 8 13 30.23 1024 10 16 N/A
8:55 am 08:55 Sunny 37 3 32 undefined 81 81 WSW 9 15 30.23 1024 10 16 N/A
9:15 am 09:15 Sunny 39 4 32 undefined 75 75 WSW 12 19 30.23 1024 10 16 N/A
9:35 am 09:35 Sunny 41 5 34 1 76 76 WSW 16 26 30.24 1024 10 16 N/A
9:55 am 09:55 Sunny 43 6 34 1 71 71 WSW 14 22 30.23 1024 10 16 N/A
10:15 am 10:15 Sunny 43 6 32 undefined 66 66 WSW 16 26 30.22 1024 10 16 N/A
10:35 am 10:35 Sunny 45 7 34 1 66 66 WSW 13 20 30.22 1023 10 16 N/A
10:55 am 10:55 Sunny 46 8 34 1 62 62 WSW 15 24 30.22 1023 10 16 N/A
11:15 am 11:15 Sunny 46 8 32 undefined 57 57 WSW 18 30 30.23 1024 10 16 N/A
11:35 am 11:35 Sunny 48 9 32 undefined 54 54 W 17 28 30.21 1023 10 16 N/A
11:55 am 11:55 Sunny 48 9 32 undefined 54 54 W 16 26 30.21 1023 10 16 N/A
12:15 pm 12:15 Sunny 48 9 32 undefined 54 54 W 17 28 30.21 1023 10 16 N/A
12:35 pm 12:35 Sunny 50 10 32 undefined 50 50 WSW 21 33 30.20 1023 10 16 N/A
12:55 pm 12:55 Sunny 50 10 32 undefined 50 50 WSW 18 30 30.19 1022 10 16 N/A
1:15 pm 13:15 Sunny 50 10 34 1 54 54 SW 20 31 30.18 1022 10 16 N/A
1:35 pm 13:35 Partly Cloudy 52 11 32 undefined 47 47 SW 20 31 30.17 1022 10 16 N/A
1:55 pm 13:55 Cloudy 52 11 32 undefined 47 47 WSW 15 24 30.16 1021 10 16 N/A
2:15 pm 14:15 Partly Cloudy 52 11 32 undefined 47 47 WSW 13 20 30.14 1021 10 16 N/A
2:35 pm 14:35 Mostly Cloudy 52 11 32 undefined 47 47 WSW 12 19 30.13 1020 10 16 N/A
2:55 pm 14:55 Mostly Cloudy 52 11 32 undefined 47 47 WSW 10 17 30.12 1020 10 16 N/A
3:15 pm 15:15 Mostly Cloudy 54 12 30 -1 41 41 SW 12 19 30.10 1019 10 16 N/A
3:35 pm 15:35 Sunny 54 12 32 undefined 44 44 SSW 13 20 30.08 1019 10 16 N/A
3:55 pm 15:55 Sunny 54 12 32 undefined 44 44 S 13 20 30.08 1019 10 16 N/A
4:15 pm 16:15 Sunny 52 11 30 -1 44 44 SSW 12 19 30.08 1019 10 16 N/A
4:35 pm 16:35 Sunny 52 11 32 undefined 47 47 SSW 10 17 30.08 1019 10 16 N/A
4:55 pm 16:55 Sunny 52 11 32 undefined 47 47 SW 8 13 30.09 1019 10 16 N/A
5:15 pm 17:15 Sunny 48 9 32 undefined 54 54 SSW 6 9 30.08 1019 10 16 N/A
5:35 pm 17:35 Clear 46 8 30 -1 53 53 SSW 8 13 30.09 1019 10 16 N/A
5:55 pm 17:55 Clear 48 9 30 -1 50 50 SSW 10 17 30.07 1018 10 16 N/A
6:15 pm 18:15 Partly Cloudy 46 8 30 -1 53 53 SSW 8 13 30.07 1018 10 16 N/A
6:35 pm 18:35 Mostly Cloudy 48 9 32 undefined 54 54 SSW 8 13 30.06 1018 10 16 N/A
6:55 pm 18:55 Cloudy 46 8 32 undefined 57 57 SSW 8 13 30.07 1018 10 16 N/A
7:15 pm 19:15 Mostly Cloudy 46 8 32 undefined 57 57 SSW 9 15 30.08 1019 10 16 N/A
7:35 pm 19:35 Mostly Cloudy 48 9 32 undefined 54 54 SSW 10 17 30.05 1018 10 16 N/A
7:55 pm 19:55 Cloudy 48 9 32 undefined 54 54 SSW 12 19 30.05 1018 10 16 N/A
8:15 pm 20:15 Cloudy 50 10 32 undefined 50 50 SSW 12 19 30.05 1018 10 16 N/A
8:35 pm 20:35 Cloudy 50 10 32 undefined 50 50 SW 15 24 30.06 1018 10 16 N/A
8:55 pm 20:55 Mostly Cloudy 50 10 32 undefined 50 50 SW 15 24 30.06 1018 10 16 N/A
9:15 pm 21:15 Partly Cloudy 48 9 32 undefined 54 54 SW 10 17 30.07 1018 10 16 N/A
9:35 pm 21:35 Clear 46 8 32 undefined 57 57 WSW 12 19 30.09 1019 10 16 N/A
9:55 pm 21:55 Clear 46 8 34 1 62 62 WSW 13 20 30.09 1019 10 16 N/A
10:15 pm 22:15 Clear 46 8 34 1 62 62 WSW 14 22 30.09 1019 10 16 N/A
10:35 pm 22:35 Clear 46 8 34 1 62 62 WSW 14 22 30.09 1019 10 16 N/A
10:55 pm 22:55 Clear 46 8 34 1 62 62 W 14 22 30.09 1019 10 16 N/A
11:15 pm 23:15 Clear 46 8 34 1 62 62 W 15 24 30.09 1019 10 16 N/A
11:35 pm 23:35 Clear 46 8 34 1 62 62 W 10 17 30.09 1019 10 16 N/A
11:55 pm 23:55 Clear 41 5 34 1 76 76 W 10 17 30.10 1019 10 16 N/A

Powered by AerisWeather